User: anonymous   Login
Location: Kuffner-Sternwarte
(48.2130°N, 16.2960°E)
Time: 20:27:52
(UTC+01:00)
Language:

O/OREOS (USA 219) - Orbit

View from above orbital plane
View from above orbital plane
View from above satellite
View from above satellite

Ground track
Ground track

The orbit data is extracted from the following two-line orbital elements,

1 37224U 10062C   25247.07754425  .00005077  00000-0  50663-3 0  9993
2 37224  71.9738   7.5832 0016737 254.2492 105.6832 14.91865902 73945
Epoch (UTC): 04 September 2025 01:51:39
Eccentricity: 0.0016737
inclination: 71.9738°
perigee height: 580 km
apogee height: 604 km
right ascension of ascending node: 7.5832°
argument of perigee: 254.2492°
revolutions per day: 14.91865902
mean anomaly at epoch: 105.6832°
orbit number at epoch: 7394

The dashed part of the orbit path shows where the satellite is in the earth's shadow,  

DLR